Location: Central Springs High School
(43.2862°N, 93.1962°W)
Time: 04:12:58
(UTC+00:00)

Envisat - Visible Passes

Search period start: 07 October 2024 00:00
Search period end: 17 October 2024 00:00
Orbit: 762 x 764 km, 98.3° (Epoch: 06 October)

Date Brightness Start Highest point End Pass type
(mag) Time Alt. Az. Time Alt. Az. Time Alt. Az.
07 Oct 5.1 08:38:37 10° NNE 08:40:56 23° NE 08:40:56 23° NE visible
07 Oct 4.0 10:17:33 10° N 10:21:05 30° NW 10:21:05 30° NW visible
08 Oct 6.0 08:02:36 10° ENE 08:02:53 11° ENE 08:02:53 11° ENE visible
08 Oct 3.8 09:39:42 10° N 09:43:01 41° N 09:43:01 41° N visible
09 Oct 4.6 09:02:17 10° NNE 09:04:59 30° NE 09:04:59 30° NE visible
09 Oct 4.4 10:42:07 10° NNW 10:45:07 20° NW 10:45:07 20° NW visible
10 Oct 5.6 08:25:28 10° NE 08:26:55 16° NE 08:26:55 16° NE visible
10 Oct 4.0 10:03:53 10° N 10:07:04 33° NNW 10:07:04 33° NNW visible
11 Oct 4.3 09:26:12 10° NNE 09:29:00 34° NNE 09:29:00 34° NNE visible
11 Oct 4.8 11:07:14 10° NNW 11:09:09 13° NW 11:09:09 13° NW visible
12 Oct 5.2 08:48:57 10° NNE 08:50:57 22° NE 08:50:57 22° NE visible
12 Oct 4.3 10:28:18 10° N 10:31:05 23° NW 10:31:05 23° NW visible
13 Oct 5.9 08:12:29 10° NE 08:12:53 11° NE 08:12:53 11° NE visible
13 Oct 4.2 09:50:16 10° N 09:53:01 31° N 09:53:01 31° N visible
14 Oct 4.8 09:12:43 10° NNE 09:14:57 26° NNE 09:14:57 26° NNE visible
14 Oct 4.7 10:53:01 10° NNW 10:55:06 16° NW 10:55:06 16° NW visible
15 Oct 5.6 08:35:41 10° NE 08:36:53 16° NE 08:36:53 16° NE visible
15 Oct 4.4 10:14:32 10° N 10:17:01 25° NNW 10:17:01 25° NNW visible
16 Oct 4.6 09:36:41 10° N 09:38:57 27° N 09:38:57 27° N visible
16 Oct 5.0 11:18:57 10° NW 11:19:06 10° NW 11:19:06 10° NW visible
